Weather History for Sioux Lookout, ON

Change the Weather History Date:

Tuesday, January 29, 2013

  Actual Average Record
Temperature  
Mean Temperature 20 °F -  
Max Temperature 25 °F 15 °F 30 °F (2001)
Min Temperature 12 °F -7 °F -36 °F (2002)
Degree Days  
Heating Degree Days 45    
Moisture  
Dew Point 21 °F    
Average Humidity 92    
Maximum Humidity 100    
Minimum Humidity 79    
Precipitation  
Precipitation 1.10 in 0.04 in - ()
Sea Level Pressure  
Sea Level Pressure 29.70 in    
Wind  
Wind Speed 6 mph ()    
Max Wind Speed 14 mph    
Max Gust Speed 18 mph    
Visibility 3.8 miles    
Events Snow    
Averages and records for this station are not official NWS values.
T = Trace of Precipitation, MM = Missing Value Source: Averaged Metar Reports

Daily Weather History Graph

Daily Weather History Graph

Search for Another Location

Airport:

Trip Planner

Search our weather history database for the weather conditions in past years. The results will help you decide how hot, cold, wet, or windy it might be!

Date:

Astronomy

Jan. 29, 2013 Rise Set
Actual Time 7:45 AM CST 4:57 PM CST
Civil Twilight 7:09 AM CST 5:32 PM CST
Nautical Twilight 6:30 AM CST 6:11 PM CST
Astronomical Twilight 5:52 AM CST 6:49 PM CST
Moon 8:17 PM CST (1/29) 8:21 AM CST (1/29)
Length of Visible Light 10h 22m
Length of Day
9h 11m
Waning Gibbous, 93% of the Moon is Illuminated
Jan 29
Waning Gibbous
Feb 3
Last Quarter
Feb 10
New
Feb 17
First Quarter
Feb 25
Full

Hourly Weather History & Observations

Time (CST) Temp. Windchill Dew Point Humidity Pressure Visibility Wind Dir Wind Speed Gust Speed Precip Events Conditions
12:00 AM 29 °F - 29 °F 100% 29.76 in 1 mi South 2.3 mph - - Snow Light Snow
12:00 AM 30.2 °F - 28.4 °F 93% 29.76 in 1.0 mi South 2.3 mph - N/A Snow Light Snow
1:00 AM 28.4 °F - 28.4 °F 100% 29.73 in 1.5 mi Calm Calm - N/A Snow Light Snow
2:00 AM 28.4 °F 24.6 °F 28.4 °F 100% 29.69 in 1.5 mi SSE 3.5 mph - N/A Snow Light Snow
3:00 AM 28.4 °F - 28.4 °F 100% 29.68 in 1.0 mi NW 2.3 mph - N/A Snow Light Snow
4:00 AM 28.4 °F 21.2 °F 26.6 °F 93% 29.66 in 2.0 mi North 6.9 mph - N/A Snow Light Snow
5:00 AM 26.6 °F 21.2 °F 26.6 °F 100% 29.65 in 1.5 mi North 4.6 mph - N/A Snow Light Snow
6:00 AM 26 °F - 24 °F 90% 29.64 in 1 mi North 6.9 mph - - Snow Light Snow
6:00 AM 26.6 °F 18.2 °F 24.8 °F 93% 29.64 in 1.5 mi North 8.1 mph - N/A Snow Light Snow
7:00 AM 24.8 °F 16.9 °F 24.8 °F 100% 29.64 in 1.5 mi NNW 6.9 mph - N/A Snow Light Snow
8:00 AM 24.8 °F 16.9 °F 23.0 °F 93% 29.63 in 1.2 mi North 6.9 mph - N/A Snow Light Snow
9:00 AM 24.8 °F 16.9 °F 23.0 °F 93% 29.63 in 2.5 mi North 6.9 mph - N/A Snow Light Snow
10:00 AM 24.8 °F 16.9 °F 21.2 °F 86% 29.64 in 5.0 mi North 6.9 mph - N/A Snow Light Snow
11:00 AM 23.0 °F 12.4 °F 21.2 °F 93% 29.65 in 5.0 mi NNW 10.4 mph - N/A Snow Light Snow
12:00 PM 23 °F - 20 °F 85% 29.65 in 5 mi NW 12.7 mph - - Snow Light Snow
12:00 PM 23.0 °F 11.1 °F 21.2 °F 93% 29.65 in 5.0 mi NW 12.7 mph - N/A Snow Light Snow
1:00 PM 23.0 °F 13.1 °F 21.2 °F 93% 29.65 in 5.0 mi NW 9.2 mph - N/A Snow Light Snow
2:00 PM 21.2 °F 10.9 °F 19.4 °F 93% 29.68 in 5.0 mi WNW 9.2 mph - N/A Snow Light Snow
3:00 PM 21.2 °F 11.7 °F 19.4 °F 93% 29.68 in 5.0 mi NW 8.1 mph - N/A Snow Light Snow
4:00 PM 21.2 °F 11.7 °F 17.6 °F 86% 29.70 in 5.0 mi WNW 8.1 mph - N/A Snow Light Snow
5:00 PM 19.4 °F 8.6 °F 17.6 °F 93% 29.72 in 6.0 mi NW 9.2 mph - N/A Snow Light Snow
6:00 PM 19 °F - 17 °F 86% 29.76 in 6 mi NW 8.1 mph - - Snow Light Snow
6:00 PM 19.4 °F 9.5 °F 17.6 °F 93% 29.76 in 6.0 mi NW 8.1 mph - N/A Snow Light Snow
7:00 PM 17.6 °F 5.7 °F 14.0 °F 86% 29.78 in 6.0 mi NW 10.4 mph - N/A Snow Light Snow
8:00 PM 17.6 °F 5.0 °F 12.2 °F 79% 29.77 in 10.0 mi NNW 11.5 mph 18.4 mph N/A Snow Light Snow
9:00 PM 15.8 °F 4.2 °F 12.2 °F 86% 29.80 in 5.0 mi NW 9.2 mph - N/A Snow Light Snow
10:00 PM 15.8 °F 3.4 °F 12.2 °F 86% 29.80 in 6.0 mi NW 10.4 mph - N/A Snow Light Snow
11:00 PM 12.2 °F -3.1 °F 8.6 °F 85% 29.82 in 3.0 mi North 13.8 mph - N/A Snow Light Snow